ROMMA est une association bénévole à but non lucratif. Votre soutien est indispensable : ADHERER à ROMMA ou FAIRE un DON

Chambon - (38, Isère)

Oisans (2460 m)   Longitude: 06° 10' 42" E   Latitude: 45° 01' 32" N Station partenaire n°803
 

Détail journalier du     <<     >>

Température Humidité Vent Dir Rafale Dir. rafale Neige 1 Neige 2
Heure (°C) (%) (km/h) (km/h) (cm) (cm)
01:00 -0.95545ENE78ENE169222
02:00 -2.48132ENE70ENE169222
03:00 -1.56643ENE73ENE169222
04:00 -0.66031ENE66ENE169222
05:00 -1.16422ENE66ENE169222
06:00 -1.87328ENE61ENE169222
07:00 -0.56813ENE49ENE169222
08:00 -0.6686NNO27NNO169222
09:00 0.5655O23O169222
10:00 2.0614NNE23NNE169222
11:00 1.7636NNE39NE169222
12:00 4.0555NE26NE168222
13:00 3.4584NNE17NNE168222
14:00 3.6594NNE15NNE168221
15:00 0.004NE15NE00
16:00 4.2595NE18SE166220
17:00 2.8647NE20NE166220
18:00 1.6679NE20NE166219
19:00 1.4658NE28NE166219
20:00 0.3666N21N166219
21:00 1.2653NE17NE165219
22:00 0.1724SSO24SO165218
23:00 -1.6807NNE35NNE165218
minuit -1.78015NNE49NE165219

Graphique du 22-04-2019

 

Serveur OMMA